Location: Ch�teau-Arnoux
(44.0814°N, 6.0027°E)
Time: 05:08:02
(UTC+00:00)

Cosmos 1076 Rocket - Pass Details

Date: 15 November 2019
Orbit: 588 x 614 km, 82.5° (Epoch: 06 December)

Event Time Altitude Azimuth Distance (km) Brightness Sun altitude
Rises 03:58:32 0° 178° (S) 2,865 7.0 -27.3°
Enters shadow 03:58:57 - 178° (S) 2,693 6.9 -27.2°
Exits shadow 04:03:15 33° 163° (SSE) 1,035 4.8 -26.4°
Maximum altitude 04:05:03 62° 95° (E) 689 3.9 -26.1°
Drops below altitude 10° 04:09:21 10° 15° (NNE) 1,968 6.3 -25.3°
Sets 04:11:35 0° 12° (NNE) 2,873 7.1 -24.9°
